Regional Weather Roundup
Issued by NWS

Home | Current Version | Previous Version | Graphics & Text | Print | Product List | Glossary On
Versions: 1 2 3 4 5 6 7 8 9 10 11 12 13 14 15 16 17 18 19 20 21 22 23 24 25 26 27
000
ASUS45 KBOI 241910
RWRID

IDAHO REGIONAL WEATHER ROUNDUP
NATIONAL WEATHER SERVICE BOISE ID
100 PM MDT FRI MAR 24 2017

NOTE: "FAIR" INDICATES FEW OR NO CLOUDS BELOW 12000 FEET
WITH NO SIGNIFICANT WEATHER AND/OR OBSTRUCTIONS TO VISIBILITY

IDZ012-014-242000-
SOUTHWEST IDAHO


CITY           SKY/WX    TMP DP  RH WIND       PRES   REMARKS
BOISE          LGT RAIN  48  40  73 SE12      30.04S
CALDWELL       CLOUDY    50  41  71 E13       30.00F
MOUNTAIN HOME  PTSUNNY   50  40  67 E15G22    30.01F
$$

IDZ016-017-242000-
SOUTHCENTRAL IDAHO


CITY           SKY/WX    TMP DP  RH WIND       PRES   REMARKS
BURLEY         SUNNY     58  22  24 S14       30.07F
JEROME         PTSUNNY   59  27  29 SE17G25   30.06F
TWIN FALLS     MOSUNNY   57  24  28 S28G36    30.02F
$$

IDZ019>023-242000-
SOUTHEAST IDAHO


CITY           SKY/WX    TMP DP  RH WIND       PRES   REMARKS
IDAHO FALLS    SUNNY     53  22  29 SW15G22   30.14F
POCATELLO        N/A    N/A N/A N/A MISG      30.13F
REXBURG        SUNNY     52  23  32 S9G16     30.14F
$$

IDZ006-010-011-018-031-032-242000-
CENTRAL IDAHO MOUNTAINS


CITY           SKY/WX    TMP DP  RH WIND       PRES   REMARKS
MCCALL         LGT SNOW  35  32  88 SE12      29.97F FOG     WCI  27
HAILEY         PTSUNNY   45  27  49 E12       30.12F
STANLEY          N/A     42  23  46 SE15G29   30.01S
SALMON         CLOUDY    57  21  24 S18       29.93F
CHALLIS        PTSUNNY   52  22  30 S21G38    29.97F
$$

IDZ002-004-006-007-026-242000-
NORTHERN IDAHO


CITY           SKY/WX    TMP DP  RH WIND       PRES   REMARKS
LEWISTON       CLOUDY    51  36  56 VRB3      29.87F
LOWELL           N/A     49  35  58 VRB3      29.90F
COEUR D`ALENE  LGT RAIN  40  37  89 N7        29.87F
MULLAN PASS    LGT SNOW  32  29  88 VRB6      29.83S FOG     WCI  26
$$




USA.gov is the U.S. government's official web portal to all federal, state and local government web resources and services.